User: anonymous   Login
Location: Appleton
(44.2618°N, 88.4157°W)
Time: 01:51:32
(UTC+00:00)
Language:

Hubble Space Telescope - Orbit

View from above orbital plane
View from above orbital plane
View from above satellite
View from above satellite

Ground track
Ground track

The orbit data is extracted from the following two-line orbital elements,

1 20580U 90037B   21058.35885430  .00000771  00000-0  35778-4 0  9995
2 20580  28.4721  73.5067 0002627 318.2133  41.8254 15.09567835494603
Epoch (UTC): 27 February 2021 08:36:45
Eccentricity: 0.0002627
inclination: 28.4721°
perigee height: 536 km
apogee height: 539 km
right ascension of ascending node: 73.5067°
argument of perigee: 318.2133°
revolutions per day: 15.09567835
mean anomaly at epoch: 41.8254°
orbit number at epoch: 49460

The dashed part of the orbit path shows where the satellite is in the earth's shadow,  

DLR